BEIDOU-3 M4 (C22) (43207 NORAD) Tracking and Keplerian Element Data

This shows tracking and keplerian element data for the satellite.

Feedback or suggestion? Click here.




ElementValue
Catalog43207
NameBEIDOU-3 M4 (C22)
Epoch Orbit4745
Epoch Day34.37050883
Epoch Year2025
RAAN79.6533
Inclination56.2124
Eccentricity0.0005561
Argument of Perigee342.033
Mean Anonmoly18.0167
Mean Motion1.86230895
Decay Rate-2.3E-07
L11 43207U 18018A 25034.37050883 -.00000023 00000+0 00000+0 0 9996
L22 43207 56.2124 79.6533 0005561 342.0330 18.0167 1.86230895 47458



Live tracking and technical data element details for BEIDOU-3 M4 (C22) (NORAD 43207). BEIDOU-3 M4 (C22) can be tracked NOW for your location showing map with azimuth and elevation plus other details from your city location.







IsCatalogInMostPopularTable: catalog: 43207, numindb: 525
Update: records affected: 1



GetName: 43207 BEIDOU-3 M4 (C22)

Hit Count: updated at: Thu, 15 May 2025 20:06:52 GMT